Location: Shepherdstown, WV
(39.4326°N, 77.8042°W)
Time: 06:36:33
(UTC-04:00)

SR - Pass Details

Date: 03 August 2021
Orbit: 581 x 874 km, 66.7° (Epoch: 24 September)

Event Time Altitude Azimuth Distance (km) Brightness Sun altitude
Rises 15:06:44 0° 336° (NNW) 3,081 ? 57.6°
Reaches altitude 10° 15:09:15 10° 343° (NNW) 2,111 ? 57.2°
Maximum altitude 15:13:47 43° 55° (NE) 897 ? 56.4°
Drops below altitude 10° 15:17:58 10° 128° (SE) 1,956 ? 55.7°
Sets 15:20:14 0° 135° (SE) 2,829 ? 55.4°
